Printer-friendly version

IAU Minor Planet Center

Minor Planet Center

129P/Shoemaker-Levy

Orbital Elements

The following orbital elements are taken from MPC 50140:
129P/Shoemaker-Levy
Epoch 2005 May 30.0 TT = JDT 2453520.5
T 2005 June 4.6975 TT                                   MPC
q   2.806946             (2000.0)            P               Q
n   0.1362985      Peri.  181.6735      -0.5778421      -0.8129006
a   3.739457       Node   303.6319      +0.7498129      -0.4935662
e   0.249371       Incl.    5.0120      +0.3223028      -0.3091684
P   7.23
From 251 observations 1991-2003, mean residual 0".6.  Nongravitational
     parameters A1 = -0.79, A2 = -1.8498.
Elements are also available for the current standard epoch:
129P/Shoemaker-Levy
Epoch 2010 Jan. 4.0 TT = JDT 2455200.5
T 2013 Sept. 17.4011 TT                                 MPC
q   2.858002             (2000.0)            P               Q
n   0.1299982      Peri.  291.6404      -0.8610008      -0.5082489
a   3.859323       Node   217.8195      +0.4773368      -0.7946182
e   0.259455       Incl.    1.7746      +0.1755767      -0.3320616
P   7.58
An explanation of the orbital elements is available.

These orbital elements are also available in forms suitable for loading into a number of popular planetarium-type software programs.


Ephemeris

The following ephemeris is at intervals of five days. A daily ephemeris covering the same time interval is also available.

Personalized ephemerides for this (and other) objects may be generated using the Minor Planet & Comet Ephemeris Service.

Recent magnitude estimates for this comet (as reported to the ICQ) may be available.

Date    TT    R. A. (2000) Decl.     Delta      r     Elong.  Phase   m1    m2

WARNING!

This comet gets close to the sun during the period covered in the ephemeris below. Observers are warned to be wary of observing comets near the sun. NEVER point any kind of optical instrument at the sun--instant blindness will be the probable result.

2009 10 26 21 07.72 -14 40.2 4.549 4.861 102.4 11.5 21.2 22.4 2009 10 31 21 08.67 -14 37.6 4.628 4.861 97.7 11.7 21.2 22.5 2009 11 05 21 09.95 -14 33.6 4.708 4.861 93.0 11.8 21.2 22.5 2009 11 10 21 11.54 -14 28.1 4.788 4.861 88.4 11.8 21.3 22.5 2009 11 15 21 13.42 -14 21.3 4.868 4.861 83.8 11.7 21.3 22.6 2009 11 20 21 15.59 -14 13.1 4.947 4.861 79.3 11.5 21.3 22.6 2009 11 25 21 18.02 -14 03.5 5.025 4.861 74.9 11.3 21.4 22.6 2009 11 30 21 20.69 -13 52.6 5.101 4.861 70.5 11.0 21.4 22.7 2009 12 05 21 23.59 -13 40.5 5.175 4.861 66.1 10.7 21.4 22.7 2009 12 10 21 26.70 -13 27.1 5.247 4.861 61.8 10.3 21.5 22.7 2009 12 15 21 30.00 -13 12.6 5.316 4.861 57.6 9.8 21.5 22.7 2009 12 20 21 33.48 -12 56.9 5.382 4.860 53.4 9.4 21.5 22.7 2009 12 25 21 37.12 -12 40.1 5.445 4.860 49.2 8.8 21.5 22.7 2009 12 30 21 40.91 -12 22.3 5.503 4.859 45.1 8.2 21.6 22.7 2010 01 04 21 44.82 -12 03.5 5.558 4.859 41.0 7.6 21.6 22.7 2010 01 09 21 48.85 -11 43.8 5.608 4.858 37.0 7.0 21.6 22.7 2010 01 14 21 52.97 -11 23.2 5.654 4.858 33.0 6.3 21.6 22.7 2010 01 19 21 57.18 -11 01.7 5.695 4.857 29.0 5.6 21.6 22.7 2010 01 24 22 01.47 -10 39.5 5.731 4.856 25.0 4.9 21.7 22.6 2010 01 29 22 05.82 -10 16.6 5.762 4.856 21.1 4.2 21.7 22.6 2010 02 03 22 10.21 -09 53.1 5.788 4.855 17.1 3.4 21.7 22.6 2010 02 08 22 14.64 -09 29.0 5.809 4.854 13.2 2.7 21.7 22.5 2010 02 13 22 19.09 -09 04.4 5.824 4.853 9.4 1.9 21.7 22.5 2010 02 18 22 23.57 -08 39.4 5.834 4.852 5.6 1.1 21.7 22.4 2010 02 23 22 28.04 -08 14.0 5.839 4.851 2.0 0.4 21.7 22.3 2010 02 28 22 32.51 -07 48.3 5.839 4.850 2.6 0.5 21.7 22.4 2010 03 05 22 36.96 -07 22.4 5.833 4.848 6.2 1.3 21.7 22.4 2010 03 10 22 41.39 -06 56.3 5.822 4.847 10.0 2.0 21.7 22.5 2010 03 15 22 45.78 -06 30.2 5.806 4.846 13.8 2.8 21.7 22.5 2010 03 20 22 50.13 -06 04.0 5.784 4.844 17.6 3.6 21.7 22.6 2010 03 25 22 54.42 -05 38.0 5.758 4.843 21.4 4.3 21.7 22.6 2010 03 30 22 58.65 -05 12.1 5.726 4.841 25.2 5.0 21.6 22.6 2010 04 04 23 02.80 -04 46.5 5.690 4.840 29.0 5.8 21.6 22.7 2010 04 09 23 06.88 -04 21.1 5.649 4.838 32.8 6.4 21.6 22.7 2010 04 14 23 10.86 -03 56.2 5.604 4.837 36.7 7.1 21.6 22.7 2010 04 19 23 14.74 -03 31.7 5.554 4.835 40.5 7.8 21.6 22.7 2010 04 24 23 18.51 -03 07.9 5.501 4.833 44.4 8.4 21.5 22.7 2010 04 29 23 22.15 -02 44.7 5.443 4.831 48.2 8.9 21.5 22.7 2010 05 04 23 25.66 -02 22.2 5.382 4.829 52.1 9.5 21.5 22.7 2010 05 09 23 29.03 -02 00.5 5.318 4.827 56.0 10.0 21.5 22.7 2010 05 14 23 32.24 -01 39.8 5.251 4.825 60.0 10.5 21.4 22.7 2010 05 19 23 35.28 -01 20.1 5.180 4.823 64.0 10.9 21.4 22.7 2010 05 24 23 38.14 -01 01.5 5.108 4.821 68.0 11.2 21.4 22.7 2010 05 29 23 40.81 -00 44.2 5.033 4.819 72.1 11.5 21.3 22.6 2010 06 03 23 43.27 -00 28.1 4.957 4.817 76.2 11.8 21.3 22.6 2010 06 08 23 45.52 -00 13.4 4.879 4.814 80.4 12.0 21.3 22.6 2010 06 13 23 47.53 -00 00.2 4.800 4.812 84.6 12.1 21.2 22.5 2010 06 18 23 49.29 +00 11.3 4.720 4.810 88.9 12.2 21.2 22.5 2010 06 23 23 50.79 +00 21.2 4.641 4.807 93.3 12.2 21.2 22.5 2010 06 28 23 52.02 +00 29.3 4.562 4.805 97.7 12.1 21.1 22.4 2010 07 03 23 52.97 +00 35.5 4.483 4.802 102.2 11.9 21.1 22.4 2010 07 08 23 53.62 +00 39.8 4.406 4.800 106.8 11.7 21.0 22.3 2010 07 13 23 53.97 +00 42.0 4.331 4.797 111.5 11.4 21.0 22.3 2010 07 18 23 54.01 +00 42.1 4.258 4.794 116.2 11.0 21.0 22.2 2010 07 23 23 53.73 +00 40.1 4.187 4.792 121.1 10.5 20.9 22.2 2010 07 28 23 53.14 +00 36.0 4.121 4.789 126.0 9.9 20.9 22.1 2010 08 02 23 52.23 +00 29.7 4.058 4.786 131.0 9.2 20.8 22.1 2010 08 07 23 51.02 +00 21.4 4.000 4.783 136.2 8.4 20.8 22.0 2010 08 12 23 49.52 +00 11.0 3.946 4.780 141.4 7.6 20.8 21.9 2010 08 17 23 47.74 -00 01.4 3.899 4.777 146.7 6.7 20.7 21.9 2010 08 22 23 45.71 -00 15.5 3.857 4.774 152.0 5.7 20.7 21.8 2010 08 27 23 43.46 -00 31.2 3.822 4.771 157.5 4.7 20.7 21.7 2010 09 01 23 41.03 -00 48.2 3.794 4.768 163.0 3.6 20.7 21.6 2010 09 06 23 38.45 -01 06.4 3.773 4.765 168.5 2.4 20.7 21.5 2010 09 11 23 35.77 -01 25.4 3.759 4.762 174.0 1.3 20.7 21.4 2010 09 16 23 33.04 -01 44.8 3.753 4.758 178.9 0.2 20.6 21.3 2010 09 21 23 30.31 -02 04.4 3.755 4.755 174.5 1.2 20.6 21.4 2010 09 26 23 27.63 -02 23.7 3.764 4.752 168.9 2.3 20.6 21.5 2010 10 01 23 25.05 -02 42.5 3.780 4.748 163.3 3.5 20.7 21.6 2010 10 06 23 22.61 -03 00.4 3.804 4.745 157.7 4.6 20.7 21.7 2010 10 11 23 20.37 -03 17.2 3.835 4.741 152.2 5.6 20.7 21.8 2010 10 16 23 18.36 -03 32.6 3.873 4.738 146.7 6.6 20.7 21.8 2010 10 21 23 16.61 -03 46.3 3.917 4.734 141.2 7.6 20.7 21.9 2010 10 26 23 15.15 -03 58.1 3.967 4.731 135.8 8.4 20.7 21.9 2010 10 31 23 14.00 -04 08.0 4.022 4.727 130.5 9.2 20.8 22.0 2010 11 05 23 13.18 -04 15.8 4.081 4.723 125.3 9.9 20.8 22.1 2010 11 10 23 12.70 -04 21.5 4.145 4.720 120.1 10.5 20.8 22.1 2010 11 15 23 12.56 -04 24.9 4.212 4.716 115.0 11.0 20.9 22.2 2010 11 20 23 12.76 -04 26.1 4.282 4.712 110.0 11.4 20.9 22.2 2010 11 25 23 13.30 -04 25.1 4.354 4.708 105.1 11.7 20.9 22.3 2010 11 30 23 14.17 -04 22.0 4.428 4.705 100.3 11.9 21.0 22.3

Valid HTML 4.01!